Time,TemperatureF,DewpointF,PressureIn,WindDirection,WindDirectionDegrees,WindSpeedMPH,WindSpeedGustMPH,Humidity,HourlyPrecipIn,Conditions,Clouds,dailyrainin,SolarRadiationWatts/m^2,SoftwareType,DateUTC
2013-03-03 00:01:00,37.0,30.0,-100.00,North,351,0.0,4.0,76,0.00,,,0.00,0.000000,,2013-03-03 07:01:00,
2013-03-03 00:11:00,37.0,30.0,-100.00,North,351,0.0,4.0,76,0.00,,,0.00,0.000000,,2013-03-03 07:11:00,
2013-03-03 00:21:00,37.0,30.0,-100.00,North,351,0.0,4.0,76,0.00,,,0.00,0.000000,,2013-03-03 07:21:00,
2013-03-03 00:31:00,37.0,30.0,-100.00,North,351,0.0,4.0,76,0.00,,,0.00,0.000000,,2013-03-03 07:31:00,
2013-03-03 00:40:00,38.0,29.0,-100.00,West,274,0.0,3.0,69,0.00,,,0.00,0.000000,,2013-03-03 07:40:00,
2013-03-03 01:01:00,38.0,29.0,-100.00,West,274,0.0,3.0,69,0.00,,,0.00,0.000000,,2013-03-03 08:01:00,
2013-03-03 01:11:00,38.0,29.0,-100.00,West,274,0.0,3.0,69,0.00,,,0.00,0.000000,,2013-03-03 08:11:00,
2013-03-03 01:21:00,38.0,29.0,-100.00,West,274,0.0,3.0,69,0.00,,,0.00,0.000000,,2013-03-03 08:21:00,
2013-03-03 01:31:00,38.0,29.0,-100.00,West,274,0.0,3.0,69,0.00,,,0.00,0.000000,,2013-03-03 08:31:00,
2013-03-03 01:40:00,37.0,29.0,-100.00,SE,124,0.0,2.0,73,0.00,,,0.00,0.000000,,2013-03-03 08:40:00,
2013-03-03 02:01:00,37.0,29.0,-100.00,SE,124,0.0,2.0,73,0.00,,,0.00,0.000000,,2013-03-03 09:01:00,
2013-03-03 02:11:00,37.0,29.0,-100.00,SE,124,0.0,2.0,73,0.00,,,0.00,0.000000,,2013-03-03 09:11:00,
2013-03-03 02:21:00,37.0,29.0,-100.00,SE,124,0.0,2.0,73,0.00,,,0.00,0.000000,,2013-03-03 09:21:00,
2013-03-03 02:32:00,37.0,29.0,-100.00,SE,124,0.0,2.0,73,0.00,,,0.00,0.000000,,2013-03-03 09:32:00,
2013-03-03 02:40:00,35.0,28.0,-100.00,WNW,284,0.0,1.0,74,0.00,,,0.00,0.000000,,2013-03-03 09:40:00,
2013-03-03 03:01:00,35.0,28.0,-100.00,WNW,284,0.0,1.0,74,0.00,,,0.00,0.000000,,2013-03-03 10:01:00,
2013-03-03 03:11:00,35.0,28.0,-100.00,WNW,284,0.0,1.0,74,0.00,,,0.00,0.000000,,2013-03-03 10:11:00,
2013-03-03 03:21:00,35.0,28.0,-100.00,WNW,284,0.0,1.0,74,0.00,,,0.00,0.000000,,2013-03-03 10:21:00,
2013-03-03 03:32:00,35.0,28.0,-100.00,WNW,284,0.0,1.0,74,0.00,,,0.00,0.000000,,2013-03-03 10:32:00,
2013-03-03 03:40:00,34.0,28.0,-100.00,SE,143,0.0,2.0,78,0.00,,,0.00,0.000000,,2013-03-03 10:40:00,
2013-03-03 04:01:00,34.0,28.0,-100.00,SE,143,0.0,2.0,78,0.00,,,0.00,0.000000,,2013-03-03 11:01:00,
2013-03-03 04:11:00,34.0,28.0,-100.00,SE,143,0.0,2.0,78,0.00,,,0.00,0.000000,,2013-03-03 11:11:00,
2013-03-03 04:21:00,34.0,28.0,-100.00,SE,143,0.0,2.0,78,0.00,,,0.00,0.000000,,2013-03-03 11:21:00,
2013-03-03 04:32:00,34.0,28.0,-100.00,SE,143,0.0,2.0,78,0.00,,,0.00,0.000000,,2013-03-03 11:32:00,
2013-03-03 04:40:00,34.0,27.0,-100.00,NNW,333,1.0,2.0,76,0.00,,,0.00,0.000000,,2013-03-03 11:40:00,
2013-03-03 05:01:00,34.0,27.0,-100.00,NNW,333,1.0,2.0,76,0.00,,,0.00,0.000000,,2013-03-03 12:01:00,
2013-03-03 05:11:00,34.0,27.0,-100.00,NNW,333,1.0,2.0,76,0.00,,,0.00,0.000000,,2013-03-03 12:11:00,
2013-03-03 05:21:00,34.0,27.0,-100.00,NNW,333,1.0,2.0,76,0.00,,,0.00,0.000000,,2013-03-03 12:21:00,
2013-03-03 05:32:00,34.0,27.0,-100.00,NNW,333,1.0,2.0,76,0.00,,,0.00,0.000000,,2013-03-03 12:32:00,
2013-03-03 05:40:00,39.0,29.0,-100.00,WNW,293,1.0,3.0,66,0.00,,,0.00,0.000000,,2013-03-03 12:40:00,
2013-03-03 06:01:00,39.0,29.0,-100.00,WNW,293,1.0,3.0,66,0.00,,,0.00,0.000000,,2013-03-03 13:01:00,
2013-03-03 06:11:00,39.0,29.0,-100.00,WNW,293,1.0,3.0,66,0.00,,,0.00,0.000000,,2013-03-03 13:11:00,
2013-03-03 06:22:00,39.0,29.0,-100.00,WNW,293,1.0,3.0,66,0.00,,,0.00,0.000000,,2013-03-03 13:22:00,
2013-03-03 06:32:00,39.0,29.0,-100.00,WNW,293,1.0,3.0,66,0.00,,,0.00,0.000000,,2013-03-03 13:32:00,
2013-03-03 06:40:00,42.0,28.0,-100.00,WNW,289,5.0,7.0,58,0.00,,,0.00,0.000000,,2013-03-03 13:40:00,
2013-03-03 07:02:00,42.0,28.0,-100.00,WNW,289,5.0,7.0,58,0.00,,,0.00,0.000000,,2013-03-03 14:02:00,
2013-03-03 07:11:00,42.0,28.0,-100.00,WNW,289,5.0,7.0,58,0.00,,,0.00,0.000000,,2013-03-03 14:11:00,
2013-03-03 07:21:00,42.0,28.0,-100.00,WNW,289,5.0,7.0,58,0.00,,,0.00,0.000000,,2013-03-03 14:21:00,
2013-03-03 07:32:00,42.0,28.0,-100.00,WNW,289,5.0,7.0,58,0.00,,,0.00,0.000000,,2013-03-03 14:32:00,
2013-03-03 07:40:00,46.0,30.0,-100.00,West,265,6.0,9.0,53,0.00,,,0.00,17.000000,,2013-03-03 14:40:00,
2013-03-03 08:02:00,46.0,30.0,-100.00,West,265,6.0,9.0,53,0.00,,,0.00,17.000000,,2013-03-03 15:02:00,
2013-03-03 08:11:00,46.0,30.0,-100.00,West,265,6.0,9.0,53,0.00,,,0.00,17.000000,,2013-03-03 15:11:00,
2013-03-03 08:22:00,46.0,30.0,-100.00,West,265,6.0,9.0,53,0.00,,,0.00,17.000000,,2013-03-03 15:22:00,
2013-03-03 08:32:00,46.0,30.0,-100.00,West,265,6.0,9.0,53,0.00,,,0.00,17.000000,,2013-03-03 15:32:00,
2013-03-03 08:40:00,46.0,29.0,-100.00,West,281,8.0,13.0,52,0.00,,,0.00,86.000000,,2013-03-03 15:40:00,
2013-03-03 09:01:00,46.0,29.0,-100.00,West,281,8.0,13.0,52,0.00,,,0.00,86.000000,,2013-03-03 16:01:00,
2013-03-03 09:12:00,46.0,29.0,-100.00,West,281,8.0,13.0,52,0.00,,,0.00,86.000000,,2013-03-03 16:12:00,
2013-03-03 09:22:00,46.0,29.0,-100.00,West,281,8.0,13.0,52,0.00,,,0.00,86.000000,,2013-03-03 16:22:00,
2013-03-03 09:32:00,46.0,29.0,-100.00,West,281,8.0,13.0,52,0.00,,,0.00,86.000000,,2013-03-03 16:32:00,
2013-03-03 09:40:00,49.0,31.0,-100.00,WNW,288,11.0,16.0,49,0.00,,,0.00,198.000000,,2013-03-03 16:40:00,
2013-03-03 10:01:00,49.0,31.0,-100.00,WNW,288,11.0,16.0,49,0.00,,,0.00,198.000000,,2013-03-03 17:01:00,
2013-03-03 10:11:00,49.0,31.0,-100.00,WNW,288,11.0,16.0,49,0.00,,,0.00,198.000000,,2013-03-03 17:11:00,
2013-03-03 10:22:00,49.0,31.0,-100.00,WNW,288,11.0,16.0,49,0.00,,,0.00,198.000000,,2013-03-03 17:22:00,
2013-03-03 10:32:00,49.0,31.0,-100.00,WNW,288,11.0,16.0,49,0.00,,,0.00,198.000000,,2013-03-03 17:32:00,
2013-03-03 10:40:00,51.0,31.0,-100.00,West,274,9.0,14.0,46,0.00,,,0.00,284.000000,,2013-03-03 17:40:00,
2013-03-03 11:02:00,51.0,31.0,-100.00,West,274,9.0,14.0,46,0.00,,,0.00,284.000000,,2013-03-03 18:02:00,
2013-03-03 11:11:00,51.0,31.0,-100.00,West,274,9.0,14.0,46,0.00,,,0.00,284.000000,,2013-03-03 18:11:00,
2013-03-03 11:21:00,51.0,31.0,-100.00,West,274,9.0,14.0,46,0.00,,,0.00,284.000000,,2013-03-03 18:21:00,
2013-03-03 11:32:00,51.0,31.0,-100.00,West,274,9.0,14.0,46,0.00,,,0.00,284.000000,,2013-03-03 18:32:00,
2013-03-03 11:40:00,52.0,32.0,-100.00,West,269,15.0,23.0,47,0.00,,,0.00,274.000000,,2013-03-03 18:40:00,
2013-03-03 12:02:00,52.0,32.0,-100.00,West,269,15.0,23.0,47,0.00,,,0.00,274.000000,,2013-03-03 19:02:00,
2013-03-03 12:11:00,52.0,32.0,-100.00,West,269,15.0,23.0,47,0.00,,,0.00,274.000000,,2013-03-03 19:11:00,
2013-03-03 12:22:00,52.0,32.0,-100.00,West,269,15.0,23.0,47,0.00,,,0.00,274.000000,,2013-03-03 19:22:00,
2013-03-03 12:32:00,52.0,32.0,-100.00,West,269,15.0,23.0,47,0.00,,,0.00,274.000000,,2013-03-03 19:32:00,
2013-03-03 12:40:00,48.0,34.0,-100.00,West,262,12.0,21.0,58,0.00,,,0.00,270.000000,,2013-03-03 19:40:00,
2013-03-03 13:01:00,48.0,34.0,-100.00,West,262,12.0,21.0,58,0.00,,,0.00,270.000000,,2013-03-03 20:01:00,
2013-03-03 13:11:00,48.0,34.0,-100.00,West,262,12.0,21.0,58,0.00,,,0.00,270.000000,,2013-03-03 20:11:00,
2013-03-03 13:21:00,48.0,34.0,-100.00,West,262,12.0,21.0,58,0.00,,,0.00,270.000000,,2013-03-03 20:21:00,
2013-03-03 13:32:00,48.0,34.0,-100.00,West,262,12.0,21.0,58,0.00,,,0.00,270.000000,,2013-03-03 20:32:00,
2013-03-03 13:40:00,52.0,37.0,-100.00,WSW,246,6.0,16.0,56,0.00,,,0.00,259.000000,,2013-03-03 20:40:00,
2013-03-03 14:02:00,52.0,37.0,-100.00,WSW,246,6.0,16.0,56,0.00,,,0.00,259.000000,,2013-03-03 21:02:00,
2013-03-03 14:11:00,52.0,37.0,-100.00,WSW,246,6.0,16.0,56,0.00,,,0.00,259.000000,,2013-03-03 21:11:00,
2013-03-03 14:22:00,52.0,37.0,-100.00,WSW,246,6.0,16.0,56,0.00,,,0.00,259.000000,,2013-03-03 21:22:00,
2013-03-03 14:32:00,52.0,37.0,-100.00,WSW,246,6.0,16.0,56,0.00,,,0.00,259.000000,,2013-03-03 21:32:00,
2013-03-03 14:40:00,52.0,35.0,-100.00,WSW,237,5.0,14.0,53,0.00,,,0.00,174.000000,,2013-03-03 21:40:00,
2013-03-03 15:01:00,52.0,35.0,-100.00,WSW,237,5.0,14.0,53,0.00,,,0.00,174.000000,,2013-03-03 22:01:00,
2013-03-03 15:11:00,52.0,35.0,-100.00,WSW,237,5.0,14.0,53,0.00,,,0.00,174.000000,,2013-03-03 22:11:00,
2013-03-03 15:22:00,52.0,35.0,-100.00,WSW,237,5.0,14.0,53,0.00,,,0.00,174.000000,,2013-03-03 22:22:00,
2013-03-03 15:32:00,52.0,35.0,-100.00,WSW,237,5.0,14.0,53,0.00,,,0.00,174.000000,,2013-03-03 22:32:00,
2013-03-03 15:40:00,51.0,35.0,-100.00,West,279,5.0,13.0,55,0.00,,,0.00,140.000000,,2013-03-03 22:40:00,
2013-03-03 16:01:00,51.0,35.0,-100.00,West,279,5.0,13.0,55,0.00,,,0.00,140.000000,,2013-03-03 23:01:00,
2013-03-03 16:11:00,51.0,35.0,-100.00,West,279,5.0,13.0,55,0.00,,,0.00,140.000000,,2013-03-03 23:11:00,
2013-03-03 16:21:00,51.0,35.0,-100.00,West,279,5.0,13.0,55,0.00,,,0.00,140.000000,,2013-03-03 23:21:00,
2013-03-03 16:32:00,51.0,35.0,-100.00,West,279,5.0,13.0,55,0.00,,,0.00,140.000000,,2013-03-03 23:32:00,
2013-03-03 16:40:00,50.0,35.0,-100.00,SSE,148,4.0,6.0,57,0.00,,,0.00,110.000000,,2013-03-03 23:40:00,
2013-03-03 17:01:00,50.0,35.0,-100.00,SSE,148,4.0,6.0,57,0.00,,,0.00,110.000000,,2013-03-04 00:01:00,
2013-03-03 17:11:00,50.0,35.0,-100.00,SSE,148,4.0,6.0,57,0.00,,,0.00,110.000000,,2013-03-04 00:11:00,
2013-03-03 17:21:00,50.0,35.0,-100.00,SSE,148,4.0,6.0,57,0.00,,,0.00,110.000000,,2013-03-04 00:21:00,
2013-03-03 17:32:00,50.0,35.0,-100.00,SSE,148,4.0,6.0,57,0.00,,,0.00,110.000000,,2013-03-04 00:32:00,
2013-03-03 17:40:00,46.0,32.0,-100.00,SE,140,5.0,8.0,59,0.00,,,0.00,40.000000,,2013-03-04 00:40:00,
2013-03-03 18:01:00,46.0,32.0,-100.00,SE,140,5.0,8.0,59,0.00,,,0.00,40.000000,,2013-03-04 01:01:00,
2013-03-03 18:11:00,46.0,32.0,-100.00,SE,140,5.0,8.0,59,0.00,,,0.00,40.000000,,2013-03-04 01:11:00,
2013-03-03 18:21:00,46.0,32.0,-100.00,SE,140,5.0,8.0,59,0.00,,,0.00,40.000000,,2013-03-04 01:21:00,
2013-03-03 18:32:00,46.0,32.0,-100.00,SE,140,5.0,8.0,59,0.00,,,0.00,40.000000,,2013-03-04 01:32:00,
2013-03-03 18:40:00,43.0,36.0,-100.00,NNW,327,14.0,20.0,75,0.00,,,0.00,0.000000,,2013-03-04 01:40:00,
2013-03-03 19:01:00,43.0,36.0,-100.00,NNW,327,14.0,20.0,75,0.00,,,0.00,0.000000,,2013-03-04 02:01:00,
2013-03-03 19:11:00,43.0,36.0,-100.00,NNW,327,14.0,20.0,75,0.00,,,0.00,0.000000,,2013-03-04 02:11:00,
2013-03-03 19:22:00,43.0,36.0,-100.00,NNW,327,14.0,20.0,75,0.00,,,0.00,0.000000,,2013-03-04 02:22:00,
2013-03-03 19:32:00,43.0,36.0,-100.00,NNW,327,14.0,20.0,75,0.00,,,0.00,0.000000,,2013-03-04 02:32:00,
2013-03-03 19:40:00,34.0,31.0,-100.00,NW,311,18.0,32.0,90,0.01,,,0.01,0.000000,,2013-03-04 02:40:00,
2013-03-03 20:02:00,34.0,31.0,-100.00,NW,311,18.0,32.0,90,0.01,,,0.01,0.000000,,2013-03-04 03:02:00,
2013-03-03 20:11:00,34.0,31.0,-100.00,NW,311,18.0,32.0,90,0.01,,,0.01,0.000000,,2013-03-04 03:11:00,
2013-03-03 20:21:00,34.0,31.0,-100.00,NW,311,18.0,32.0,90,0.01,,,0.01,0.000000,,2013-03-04 03:21:00,
2013-03-03 20:32:00,34.0,31.0,-100.00,NW,311,18.0,32.0,90,0.01,,,0.01,0.000000,,2013-03-04 03:32:00,
2013-03-03 20:40:00,33.0,31.0,-100.00,WNW,291,23.0,35.0,94,0.01,,,0.02,0.000000,,2013-03-04 03:40:00,
2013-03-03 21:01:00,33.0,31.0,-100.00,WNW,291,23.0,35.0,94,0.01,,,0.02,0.000000,,2013-03-04 04:01:00,
2013-03-03 21:11:00,33.0,31.0,-100.00,WNW,291,23.0,35.0,94,0.01,,,0.02,0.000000,,2013-03-04 04:11:00,
2013-03-03 21:22:00,33.0,31.0,-100.00,WNW,291,23.0,35.0,94,0.01,,,0.02,0.000000,,2013-03-04 04:22:00,
2013-03-03 21:32:00,33.0,31.0,-100.00,WNW,291,23.0,35.0,94,0.01,,,0.02,0.000000,,2013-03-04 04:32:00,
2013-03-03 21:40:00,32.0,31.0,-100.00,NW,304,18.0,31.0,95,0.00,,,0.02,0.000000,,2013-03-04 04:40:00,
2013-03-03 22:01:00,32.0,31.0,-100.00,NW,304,18.0,31.0,95,0.00,,,0.02,0.000000,,2013-03-04 05:01:00,
2013-03-03 22:11:00,32.0,31.0,-100.00,NW,304,18.0,31.0,95,0.00,,,0.02,0.000000,,2013-03-04 05:11:00,
2013-03-03 22:22:00,32.0,31.0,-100.00,NW,304,18.0,31.0,95,0.00,,,0.02,0.000000,,2013-03-04 05:22:00,
2013-03-03 22:32:00,32.0,31.0,-100.00,NW,304,18.0,31.0,95,0.00,,,0.02,0.000000,,2013-03-04 05:32:00,
2013-03-03 22:40:00,32.0,31.0,-100.00,WNW,293,18.0,25.0,95,0.00,,,0.02,0.000000,,2013-03-04 05:40:00,
2013-03-03 23:02:00,32.0,31.0,-100.00,WNW,293,18.0,25.0,95,0.00,,,0.02,0.000000,,2013-03-04 06:02:00,
2013-03-03 23:11:00,32.0,31.0,-100.00,WNW,293,18.0,25.0,95,0.00,,,0.02,0.000000,,2013-03-04 06:11:00,
2013-03-03 23:21:00,32.0,31.0,-100.00,WNW,293,18.0,25.0,95,0.00,,,0.02,0.000000,,2013-03-04 06:21:00,
2013-03-03 23:32:00,32.0,31.0,-100.00,WNW,293,18.0,25.0,95,0.00,,,0.02,0.000000,,2013-03-04 06:32:00,
2013-03-03 23:40:00,32.0,31.0,-100.00,WNW,283,19.0,27.0,95,0.00,,,0.02,0.000000,,2013-03-04 06:40:00,